Greeley, CO

11:07 AM MDT on October 21, 2017 (GMT -0600)
Greeley-Weld County

Weather History for KGXY - January, 2014

Change the Weather History Date:

Thursday, January 30, 2014

  Actual Average Record
Temperature  
Mean Temperature 32 °F -  
Max Temperature 44 °F - 68 °F (1971)
Min Temperature 19 °F - -10 °F (1980)
Degree Days  
Heating Degree Days 32    
Month to date heating degree days  
Cooling Degree Days 0    
Month to date cooling degree days  
Moisture  
Dew Point 27 °F    
Average Humidity 71    
Maximum Humidity 87    
Minimum Humidity 53    
Precipitation  
Precipitation 0.06 in - 0.08 in (1985)
Sea Level Pressure  
Sea Level Pressure 29.66 in    
Wind  
Wind Speed 11 mph (NE)    
Max Wind Speed 28 mph    
Max Gust Speed 31 mph    
Visibility 8 miles    
Events      
T = Trace of Precipitation, MM = Missing Value Source: NWS Daily Summary

Daily Weather History Graph

Daily Weather History Graph

Search for Another Location

Airport or City:

Trip Planner

Search our weather history database for the weather conditions in past years. The results will help you decide how hot, cold, wet, or windy it might be!

Date:

Astronomy

Jan. 30, 2014 Rise Set
Actual Time 7:09 AM MST 5:14 PM MST
Civil Twilight 6:40 AM MST 5:43 PM MST
Nautical Twilight 6:08 AM MST 6:16 PM MST
Astronomical Twilight 5:35 AM MST 6:48 PM MST
Moon 6:37 AM MST (1/30) 5:29 PM MST (1/30)
Length of Visible Light 11h 02m
Length of Day
10h 04m
Waning Crescent, 0% of the Moon is Illuminated
Jan 30
Waning Crescent
Jan 30
New
Feb 6
First Quarter
Feb 14
Full
Feb 22
Last Quarter

Hourly Weather History & Observations

Time (MST) Temp. Windchill Dew Point Humidity Pressure Visibility Wind Dir Wind Speed Gust Speed Precip Events Conditions
12:15 AM 33.8 °F 28.6 °F 24.8 °F 70% 29.46 in 10.0 mi NW 5.8 mph - N/A   Clear
12:35 AM 33.8 °F 25.8 °F 26.6 °F 75% 29.49 in 10.0 mi NNW 10.4 mph - N/A   Clear
12:55 AM 33.8 °F 29.6 °F 23.0 °F 65% 29.50 in 10.0 mi NW 4.6 mph - N/A   Clear
1:15 AM 32.0 °F 26.4 °F 24.8 °F 75% 29.51 in 10.0 mi WNW 5.8 mph - N/A   Clear
1:35 AM 33.8 °F 27.7 °F 24.8 °F 70% 29.52 in 10.0 mi West 6.9 mph - N/A   Clear
1:55 AM 37.4 °F 29.8 °F 26.6 °F 65% 29.53 in 10.0 mi WNW 11.5 mph 16.1 mph N/A   Clear
2:15 AM 42.8 °F 36.2 °F 30.2 °F 61% 29.54 in 10.0 mi NW 12.7 mph - N/A   Partly Cloudy
2:35 AM 39.2 °F 31.6 °F 30.2 °F 70% 29.56 in 10.0 mi NNW 12.7 mph - N/A   Partly Cloudy
2:55 AM 37.4 °F 26.1 °F 30.2 °F 75% 29.58 in 10.0 mi North 24.2 mph 28.8 mph N/A   Clear
3:15 AM 37.4 °F 25.6 °F 30.2 °F 75% 29.59 in 10.0 mi NNW 26.5 mph 31.1 mph N/A   Clear
3:35 AM 39.2 °F 27.8 °F 30.2 °F 70% 29.59 in 10.0 mi NNW 27.6 mph - N/A   Clear
3:55 AM 37.4 °F 26.6 °F 28.4 °F 70% 29.60 in 10.0 mi NNW 21.9 mph 25.3 mph N/A   Scattered Clouds
4:15 AM 37.4 °F 26.9 °F 28.4 °F 70% 29.60 in 10.0 mi NNW 20.7 mph 25.3 mph N/A   Scattered Clouds
4:35 AM 37.4 °F 28.2 °F 28.4 °F 70% 29.62 in 10.0 mi NW 16.1 mph - N/A   Overcast
4:55 AM 37.4 °F 29.3 °F 28.4 °F 70% 29.63 in 10.0 mi NNW 12.7 mph - N/A   Mostly Cloudy
5:15 AM 37.4 °F 30.3 °F 28.4 °F 70% 29.64 in 10.0 mi NW 10.4 mph - N/A   Partly Cloudy
5:35 AM 37.4 °F 28.9 °F 28.4 °F 70% 29.64 in 10.0 mi NW 13.8 mph - N/A   Scattered Clouds
5:55 AM 37.4 °F 27.2 °F 26.6 °F 65% 29.63 in 10.0 mi NNW 19.6 mph - N/A   Partly Cloudy
6:15 AM 37.4 °F 26.6 °F 26.6 °F 65% 29.62 in 10.0 mi North 21.9 mph - N/A   Partly Cloudy
6:35 AM 37.4 °F 26.9 °F 26.6 °F 65% 29.64 in 10.0 mi NNW 20.7 mph - N/A   Scattered Clouds
6:55 AM 37.4 °F 27.5 °F 28.4 °F 70% 29.64 in 10.0 mi North 18.4 mph - N/A   Mostly Cloudy
7:15 AM 35.6 °F 25.9 °F 28.4 °F 75% 29.64 in 10.0 mi North 16.1 mph - N/A   Overcast
7:35 AM 37.4 °F 27.8 °F 28.4 °F 70% 29.65 in 10.0 mi North 17.3 mph - N/A   Mostly Cloudy
7:55 AM 35.6 °F 28.0 °F 28.4 °F 75% 29.65 in 10.0 mi North 10.4 mph - N/A   Mostly Cloudy
8:15 AM 35.6 °F 28.0 °F 28.4 °F 75% 29.65 in 10.0 mi North 10.4 mph - N/A   Partly Cloudy
8:35 AM 37.4 °F 32.1 °F 28.4 °F 70% 29.67 in 10.0 mi West 6.9 mph - N/A   Partly Cloudy
8:55 AM 37.4 °F 32.8 °F 28.4 °F 70% 29.68 in 10.0 mi West 5.8 mph - N/A   Scattered Clouds
9:15 AM 37.4 °F 33.8 °F 28.4 °F 70% 29.69 in 10.0 mi WSW 4.6 mph - N/A   Mostly Cloudy
9:35 AM 37.4 °F - 28.4 °F 70% 29.69 in 10.0 mi Calm Calm - N/A   Mostly Cloudy
9:55 AM 39.2 °F 37.0 °F 28.4 °F 65% 29.69 in 10.0 mi NE 3.5 mph - N/A   Scattered Clouds
10:15 AM 37.4 °F 32.8 °F 30.2 °F 75% 29.70 in 10.0 mi ENE 5.8 mph - N/A   Clear
10:35 AM 39.2 °F 35.0 °F 28.4 °F 65% 29.70 in 10.0 mi East 5.8 mph - N/A   Clear
10:55 AM 39.2 °F 35.0 °F 30.2 °F 70% 29.70 in 10.0 mi East 5.8 mph - N/A   Clear
11:15 AM 39.2 °F 35.9 °F 30.2 °F 70% 29.70 in 10.0 mi East 4.6 mph - N/A   Clear
11:35 AM 41.0 °F - 30.2 °F 65% 29.69 in 10.0 mi Calm Calm - N/A   Scattered Clouds
11:55 AM 41.0 °F 39.0 °F 30.2 °F 65% 29.68 in 10.0 mi East 3.5 mph - N/A   Mostly Cloudy
12:15 PM 42.8 °F 41.1 °F 30.2 °F 61% 29.67 in 10.0 mi ESE 3.5 mph - N/A   Partly Cloudy
12:35 PM 42.8 °F 40.1 °F 30.2 °F 61% 29.66 in 10.0 mi East 4.6 mph - N/A   Clear
12:55 PM 42.8 °F 39.3 °F 28.4 °F 57% 29.65 in 10.0 mi East 5.8 mph - N/A   Clear
1:15 PM 42.8 °F 40.1 °F 30.2 °F 61% 29.64 in 10.0 mi East 4.6 mph - N/A   Clear
1:35 PM 42.8 °F 39.3 °F 30.2 °F 61% 29.64 in 10.0 mi ENE 5.8 mph - N/A   Clear
1:55 PM 44.6 °F 42.2 °F 28.4 °F 53% 29.64 in 10.0 mi ENE 4.6 mph - N/A   Clear
2:15 PM 42.8 °F 40.1 °F 28.4 °F 57% 29.64 in 10.0 mi ENE 4.6 mph - N/A   Clear
2:35 PM 42.8 °F 40.1 °F 28.4 °F 57% 29.65 in 10.0 mi ENE 4.6 mph - N/A   Scattered Clouds
2:55 PM 42.8 °F 39.3 °F 30.2 °F 61% 29.66 in 10.0 mi ESE 5.8 mph - N/A   Mostly Cloudy
3:15 PM 42.8 °F 38.6 °F 30.2 °F 61% 29.66 in 10.0 mi SE 6.9 mph - N/A   Overcast
3:35 PM 41.0 °F 35.2 °F 30.2 °F 65% 29.66 in 10.0 mi SE 9.2 mph - N/A   Overcast
3:55 PM 39.2 °F 33.0 °F 28.4 °F 65% 29.67 in 10.0 mi ESE 9.2 mph - N/A   Overcast
4:15 PM 39.2 °F 31.6 °F 28.4 °F 65% 29.69 in 10.0 mi SE 12.7 mph - N/A   Overcast
4:35 PM 39.2 °F 30.2 °F 28.4 °F 65% 29.70 in 10.0 mi SE 17.3 mph 27.6 mph N/A   Overcast
4:55 PM 37.4 °F 28.9 °F 28.4 °F 70% 29.71 in 10.0 mi SE 13.8 mph - N/A   Overcast
5:15 PM 35.6 °F 26.6 °F 30.2 °F 81% 29.71 in 10.0 mi SSE 13.8 mph - N/A   Overcast
5:35 PM 35.6 °F 27.5 °F 30.2 °F 81% 29.72 in 10.0 mi SSE 11.5 mph - N/A   Overcast
5:55 PM 33.8 °F 25.3 °F 30.2 °F 87% 29.72 in 10.0 mi SE 11.5 mph - N/A   Overcast
6:15 PM 33.8 °F 25.8 °F 28.4 °F 81% 29.72 in 7.0 mi SE 10.4 mph - N/A   Overcast
6:35 PM - - - N/A% - 5.0 mi North - - N/A   Overcast
6:55 PM - - - N/A% - 2.5 mi North - - 0.01 in   Overcast
7:15 PM - - - N/A% - 1.5 mi North - - N/A   Overcast
7:35 PM - - - N/A% - 1.2 mi North - - 0.01 in   Overcast
7:55 PM - - - N/A% - 1.0 mi North - - 0.03 in   Overcast
8:15 PM - - - N/A% - 1.2 mi North - - 0.01 in   Overcast
8:35 PM 26.6 °F 14.7 °F 23.0 °F 86% 29.73 in 1.2 mi ENE 15.0 mph 18.4 mph 0.01 in   Overcast
8:55 PM 26.6 °F 14.7 °F 21.2 °F 80% 29.73 in 1.2 mi ENE 15.0 mph 19.6 mph 0.01 in   Overcast
9:15 PM 24.8 °F 13.4 °F 19.4 °F 80% 29.75 in 1.0 mi ENE 12.7 mph 21.9 mph N/A   Overcast
9:35 PM 24.8 °F 12.9 °F 19.4 °F 80% 29.74 in 1.0 mi ENE 13.8 mph - N/A   Overcast
9:55 PM 23.0 °F 10.6 °F 17.6 °F 80% 29.75 in 1.0 mi ENE 13.8 mph - N/A   Overcast
10:15 PM 21.2 °F 6.8 °F 17.6 °F 86% 29.74 in 0.5 mi NE 17.3 mph - 0.01 in   Overcast
10:35 PM 21.2 °F 6.8 °F 17.6 °F 86% 29.76 in 0.8 mi NE 17.3 mph - 0.01 in   Overcast
10:55 PM 21.2 °F 8.3 °F 17.6 °F 86% 29.76 in 1.0 mi NE 13.8 mph - 0.01 in   Overcast
11:15 PM 21.2 °F 8.3 °F 15.8 °F 80% 29.79 in 1.2 mi NNE 13.8 mph - N/A   Overcast
11:35 PM 21.2 °F 7.8 °F 15.8 °F 80% 29.78 in 1.2 mi NNE 15.0 mph - N/A   Overcast
11:55 PM 19.4 °F 7.2 °F 15.8 °F 86% 29.78 in 1.2 mi NNE 11.5 mph - N/A   Overcast